Time,TemperatureF,DewpointF,PressureIn,WindDirection,WindDirectionDegrees,WindSpeedMPH,WindSpeedGustMPH,Humidity,HourlyPrecipIn,Conditions,Clouds,dailyrainin,SolarRadiationWatts/m^2,SoftwareType,DateUTC
2013-08-11 00:12:00,67.2,64.0,30.05,NNE,24,0.0,-999.0,89,-99.99,,,0.00,0,weatherlink.com 1.10,2013-08-11 04:12:00,
2013-08-11 00:27:00,66.5,64.0,30.06,NNE,24,0.0,-999.0,92,-99.99,,,0.00,0,weatherlink.com 1.10,2013-08-11 04:27:00,
2013-08-11 00:42:00,65.9,64.0,30.06,NNE,24,0.0,-999.0,93,-99.99,,,0.00,0,weatherlink.com 1.10,2013-08-11 04:42:00,
2013-08-11 00:57:00,65.8,64.0,30.06,NNE,24,3.0,-999.0,93,-99.99,,,0.00,0,weatherlink.com 1.10,2013-08-11 04:57:00,
2013-08-11 01:12:00,65.8,64.0,30.06,NNE,24,1.0,-999.0,93,-99.99,,,0.00,0,weatherlink.com 1.10,2013-08-11 05:12:00,
2013-08-11 01:42:00,65.2,64.0,30.06,NNE,24,1.0,-999.0,94,-99.99,,,0.00,0,weatherlink.com 1.10,2013-08-11 05:42:00,
2013-08-11 02:42:00,64.3,63.0,30.05,NNE,24,0.0,-999.0,95,-99.99,,,0.00,0,weatherlink.com 1.10,2013-08-11 06:42:00,
2013-08-11 02:57:00,64.0,63.0,30.05,NNE,24,0.0,-999.0,96,-99.99,,,0.00,0,weatherlink.com 1.10,2013-08-11 06:57:00,
2013-08-11 03:12:00,63.7,63.0,30.05,NNE,24,0.0,-999.0,96,-99.99,,,0.00,0,weatherlink.com 1.10,2013-08-11 07:12:00,
2013-08-11 03:42:00,63.4,62.0,30.05,NNE,24,0.0,-999.0,96,-99.99,,,0.00,0,weatherlink.com 1.10,2013-08-11 07:42:00,
2013-08-11 03:57:00,63.3,63.0,30.05,NNE,24,0.0,-999.0,97,-99.99,,,0.00,0,weatherlink.com 1.10,2013-08-11 07:57:00,
2013-08-11 04:12:00,62.9,62.0,30.05,NNE,24,0.0,-999.0,97,-99.99,,,0.00,0,weatherlink.com 1.10,2013-08-11 08:12:00,
2013-08-11 04:27:00,63.0,62.0,30.05,NNE,24,4.0,-999.0,97,-99.99,,,0.00,0,weatherlink.com 1.10,2013-08-11 08:27:00,
2013-08-11 04:42:00,63.0,62.0,30.05,NNE,24,3.0,-999.0,97,-99.99,,,0.00,0,weatherlink.com 1.10,2013-08-11 08:42:00,
2013-08-11 04:57:00,62.8,62.0,30.05,NNE,23,5.0,-999.0,97,-99.99,,,0.00,0,weatherlink.com 1.10,2013-08-11 08:57:00,
2013-08-11 05:12:00,62.5,62.0,30.05,NNE,14,4.0,-999.0,97,-99.99,,,0.00,0,weatherlink.com 1.10,2013-08-11 09:12:00,
2013-08-11 05:42:00,62.0,61.0,30.05,NNE,12,3.0,-999.0,97,-99.99,,,0.00,0,weatherlink.com 1.10,2013-08-11 09:42:00,
2013-08-11 05:57:00,62.0,61.0,30.06,NNE,12,2.0,-999.0,97,-99.99,,,0.00,0,weatherlink.com 1.10,2013-08-11 09:57:00,
2013-08-11 06:42:00,61.6,61.0,30.06,NNE,25,2.0,-999.0,97,-99.99,,,0.00,0,weatherlink.com 1.10,2013-08-11 10:42:00,
2013-08-11 06:57:00,61.6,61.0,30.07,NNE,25,2.0,-999.0,98,-99.99,,,0.00,5,weatherlink.com 1.10,2013-08-11 10:57:00,
2013-08-11 07:12:00,61.5,61.0,30.06,NNE,25,0.0,-999.0,97,-99.99,,,0.00,14,weatherlink.com 1.10,2013-08-11 11:12:00,
2013-08-11 07:27:00,61.3,61.0,30.07,NNE,25,0.0,-999.0,97,-99.99,,,0.00,39,weatherlink.com 1.10,2013-08-11 11:27:00,
2013-08-11 07:42:00,61.6,61.0,30.06,NNE,25,2.0,-999.0,98,-99.99,,,0.00,44,weatherlink.com 1.10,2013-08-11 11:42:00,
2013-08-11 07:57:00,62.0,62.0,30.06,NNE,25,0.0,-999.0,98,-99.99,,,0.00,70,weatherlink.com 1.10,2013-08-11 11:57:00,
2013-08-11 08:12:00,62.7,62.0,30.05,NNE,25,0.0,-999.0,98,-99.99,,,0.00,141,weatherlink.com 1.10,2013-08-11 12:12:00,
2013-08-11 08:27:00,63.4,63.0,30.06,NE,54,3.0,-999.0,98,-99.99,,,0.00,77,weatherlink.com 1.10,2013-08-11 12:27:00,
2013-08-11 08:42:00,63.8,63.0,30.07,NNE,17,2.0,-999.0,97,-99.99,,,0.00,214,weatherlink.com 1.10,2013-08-11 12:42:00,
2013-08-11 08:57:00,64.8,64.0,30.07,NE,48,0.0,-999.0,97,-99.99,,,0.00,107,weatherlink.com 1.10,2013-08-11 12:57:00,
2013-08-11 09:12:00,65.9,65.0,30.07,NNE,21,3.0,-999.0,97,-99.99,,,0.00,309,weatherlink.com 1.10,2013-08-11 13:12:00,
2013-08-11 09:27:00,66.9,65.0,30.08,North,4,3.0,-999.0,94,-99.99,,,0.00,332,weatherlink.com 1.10,2013-08-11 13:27:00,
2013-08-11 09:42:00,68.0,65.0,30.08,North,4,4.0,-999.0,91,-99.99,,,0.00,244,weatherlink.com 1.10,2013-08-11 13:42:00,
2013-08-11 10:27:00,71.9,67.0,30.08,ENE,60,2.0,-999.0,84,-99.99,,,0.00,596,weatherlink.com 1.10,2013-08-11 14:27:00,
2013-08-11 10:42:00,72.8,67.0,30.08,NNW,347,3.0,-999.0,81,-99.99,,,0.00,575,weatherlink.com 1.10,2013-08-11 14:42:00,
2013-08-11 10:57:00,73.2,66.0,30.08,North,4,2.0,-999.0,79,-99.99,,,0.00,603,weatherlink.com 1.10,2013-08-11 14:57:00,
2013-08-11 11:12:00,74.5,67.0,30.08,North,354,3.0,-999.0,76,-99.99,,,0.00,643,weatherlink.com 1.10,2013-08-11 15:12:00,
2013-08-11 11:27:00,74.9,65.0,30.08,North,359,0.0,-999.0,72,-99.99,,,0.00,677,weatherlink.com 1.10,2013-08-11 15:27:00,
2013-08-11 11:42:00,76.8,66.0,30.07,North,4,2.0,-999.0,69,-99.99,,,0.00,710,weatherlink.com 1.10,2013-08-11 15:42:00,
2013-08-11 11:57:00,77.5,66.0,30.06,SSE,149,1.0,-999.0,68,-99.99,,,0.00,728,weatherlink.com 1.10,2013-08-11 15:57:00,
2013-08-11 12:12:00,78.3,66.0,30.06,East,89,0.0,-999.0,66,-99.99,,,0.00,775,weatherlink.com 1.10,2013-08-11 16:12:00,
2013-08-11 12:42:00,78.2,66.0,30.07,South,191,1.0,-999.0,66,-99.99,,,0.00,921,weatherlink.com 1.10,2013-08-11 16:42:00,
2013-08-11 12:57:00,78.6,64.0,30.07,NE,35,2.0,-999.0,62,-99.99,,,0.00,904,weatherlink.com 1.10,2013-08-11 16:57:00,
2013-08-11 13:12:00,78.4,64.0,30.07,North,11,4.0,-999.0,62,-99.99,,,0.00,981,weatherlink.com 1.10,2013-08-11 17:12:00,
2013-08-11 13:27:00,78.8,66.0,30.07,SW,219,6.0,-999.0,66,-99.99,,,0.00,1007,weatherlink.com 1.10,2013-08-11 17:27:00,
2013-08-11 13:42:00,80.5,63.0,30.07,WSW,239,1.0,-999.0,56,-99.99,,,0.00,381,weatherlink.com 1.10,2013-08-11 17:42:00,
2013-08-11 13:57:00,80.0,63.0,30.06,NNW,331,3.0,-999.0,57,-99.99,,,0.00,904,weatherlink.com 1.10,2013-08-11 17:57:00,
2013-08-11 14:12:00,79.5,63.0,30.06,NW,306,1.0,-999.0,58,-99.99,,,0.00,339,weatherlink.com 1.10,2013-08-11 18:12:00,
2013-08-11 14:42:00,80.5,64.0,30.06,SW,224,6.0,-999.0,58,-99.99,,,0.00,981,weatherlink.com 1.10,2013-08-11 18:42:00,
2013-08-11 14:57:00,80.3,64.0,30.06,SW,225,1.0,-999.0,57,-99.99,,,0.00,304,weatherlink.com 1.10,2013-08-11 18:57:00,
2013-08-11 15:12:00,80.8,64.0,30.05,WSW,250,6.0,-999.0,56,-99.99,,,0.00,909,weatherlink.com 1.10,2013-08-11 19:12:00,
2013-08-11 15:27:00,81.1,64.0,30.05,SSW,208,5.0,-999.0,57,-99.99,,,0.00,895,weatherlink.com 1.10,2013-08-11 19:27:00,
2013-08-11 15:42:00,80.8,64.0,30.04,West,259,8.0,-999.0,56,-99.99,,,0.00,814,weatherlink.com 1.10,2013-08-11 19:42:00,
2013-08-11 16:27:00,78.2,65.0,30.04,NNW,339,3.0,-999.0,63,-99.99,,,0.00,749,weatherlink.com 1.10,2013-08-11 20:27:00,
2013-08-11 16:57:00,79.7,64.0,30.03,NNW,328,5.0,-999.0,59,-99.99,,,0.00,649,weatherlink.com 1.10,2013-08-11 20:57:00,
2013-08-11 17:12:00,79.7,64.0,30.03,NNW,334,2.0,-999.0,60,-99.99,,,0.00,494,weatherlink.com 1.10,2013-08-11 21:12:00,
2013-08-11 17:27:00,80.0,64.0,30.03,West,274,2.0,-999.0,58,-99.99,,,0.00,529,weatherlink.com 1.10,2013-08-11 21:27:00,
2013-08-11 17:42:00,81.1,63.0,30.02,WSW,255,4.0,-999.0,54,-99.99,,,0.00,475,weatherlink.com 1.10,2013-08-11 21:42:00,
2013-08-11 17:57:00,80.3,63.0,30.02,NW,315,0.0,-999.0,56,-99.99,,,0.00,434,weatherlink.com 1.10,2013-08-11 21:57:00,
2013-08-11 18:12:00,80.0,63.0,30.02,WNW,300,4.0,-999.0,56,-99.99,,,0.00,390,weatherlink.com 1.10,2013-08-11 22:12:00,
2013-08-11 18:42:00,78.9,64.0,30.02,NW,308,1.0,-999.0,60,-99.99,,,0.00,257,weatherlink.com 1.10,2013-08-11 22:42:00,
2013-08-11 18:57:00,78.7,65.0,30.02,West,278,1.0,-999.0,62,-99.99,,,0.00,218,weatherlink.com 1.10,2013-08-11 22:57:00,
2013-08-11 19:12:00,79.1,64.0,30.02,West,272,0.0,-999.0,61,-99.99,,,0.00,183,weatherlink.com 1.10,2013-08-11 23:12:00,
2013-08-11 19:27:00,78.8,65.0,30.02,NW,315,0.0,-999.0,62,-99.99,,,0.00,151,weatherlink.com 1.10,2013-08-11 23:27:00,
2013-08-11 19:57:00,76.5,65.0,30.02,NW,315,1.0,-999.0,68,-99.99,,,0.00,63,weatherlink.com 1.10,2013-08-11 23:57:00,
2013-08-11 20:12:00,75.0,65.0,30.02,NW,315,0.0,-999.0,71,-99.99,,,0.00,44,weatherlink.com 1.10,2013-08-12 00:12:00,
2013-08-11 20:27:00,75.0,66.0,30.02,NW,315,0.0,-999.0,73,-99.99,,,0.00,21,weatherlink.com 1.10,2013-08-12 00:27:00,
2013-08-11 20:57:00,71.7,66.0,30.02,NW,315,0.0,-999.0,83,-99.99,,,0.00,0,weatherlink.com 1.10,2013-08-12 00:57:00,
2013-08-11 21:12:00,70.2,66.0,30.02,NW,315,0.0,-999.0,86,-99.99,,,0.00,0,weatherlink.com 1.10,2013-08-12 01:12:00,
2013-08-11 21:27:00,69.2,65.0,30.02,NW,315,0.0,-999.0,87,-99.99,,,0.00,0,weatherlink.com 1.10,2013-08-12 01:27:00,
2013-08-11 21:42:00,68.2,65.0,30.03,WSW,241,3.0,-999.0,89,-99.99,,,0.00,0,weatherlink.com 1.10,2013-08-12 01:42:00,
2013-08-11 21:57:00,67.5,65.0,30.03,SW,216,0.0,-999.0,90,-99.99,,,0.00,0,weatherlink.com 1.10,2013-08-12 01:57:00,
2013-08-11 22:12:00,67.3,65.0,30.04,SW,216,0.0,-999.0,91,-99.99,,,0.00,0,weatherlink.com 1.10,2013-08-12 02:12:00,
2013-08-11 22:42:00,66.4,64.0,30.05,SW,216,0.0,-999.0,92,-99.99,,,0.00,0,weatherlink.com 1.10,2013-08-12 02:42:00,
2013-08-11 22:57:00,66.5,64.0,30.04,SW,216,0.0,-999.0,92,-99.99,,,0.00,0,weatherlink.com 1.10,2013-08-12 02:57:00,
2013-08-11 23:12:00,66.3,64.0,30.04,SW,216,0.0,-999.0,92,-99.99,,,0.00,0,weatherlink.com 1.10,2013-08-12 03:12:00,
2013-08-11 23:27:00,65.9,64.0,30.04,SW,216,0.0,-999.0,93,-99.99,,,0.00,0,weatherlink.com 1.10,2013-08-12 03:27:00,
2013-08-11 23:42:00,64.5,62.0,30.04,SW,216,0.0,-999.0,92,-99.99,,,0.00,0,weatherlink.com 1.10,2013-08-12 03:42:00,